EW7585 Weather Reports


Display with metric or nautical units.
time (UTC)temp
F
wind
direction
speed
MPH
gust
MPH
rain 1hr
in
rain 24hr
in
rain mn
in
humidity
%
barometer
mb
20260506024037 55 0 0.0 3.0 0.00 0.00 0.00 84 1017.8
20260506023538 55 333 0.0 4.0 0.00 0.00 0.00 84 1017.7
20260506023044 55 331 1.0 4.0 0.00 0.00 0.00 84 1017.7
20260506022537 56 352 0.0 4.0 0.00 0.00 0.00 83 1017.6
20260506022038 56 11 1.0 4.0 0.00 0.00 0.00 84 1017.6
20260506021552 56 0 1.0 3.0 0.00 0.00 0.00 84 1017.6
20260506021037 56 0 0.0 3.0 0.00 0.00 0.00 84 1017.7
20260506020537 56 340 0.0 2.0 0.00 0.00 0.00 84 1017.6
20260506020045 56 313 0.0 3.0 0.00 0.00 0.00 84 1017.6
20260506015537 57 313 0.0 3.0 0.00 0.00 0.00 84 1017.5
20260506015038 57 0 0.0 2.0 0.00 0.00 0.00 84 1017.6
20260506014549 57 0 0.0 4.0 0.00 0.00 0.00 84 1017.5
20260506014037 57 331 1.0 4.0 0.00 0.00 0.00 83 1017.4
20260506013537 57 281 0.0 3.0 0.00 0.00 0.00 83 1017.5
20260506013049 57 326 0.0 3.0 0.00 0.00 0.00 83 1017.5
20260506012537 57 0 0.0 3.0 0.00 0.00 0.00 83 1017.4
20260506012038 57 327 1.0 3.0 0.00 0.00 0.00 83 1017.4
20260506011609 57 327 0.0 3.0 0.00 0.00 0.00 83 1017.3
20260506011038 57 0 0.0 4.0 0.00 0.00 0.00 83 1017.3
20260506010538 57 0 0.0 7.0 0.00 0.00 0.00 82 1017.3
20260506010046 57 347 0.0 7.0 0.00 0.00 0.00 82 1017.4
20260506005538 58 311 1.0 7.0 0.00 0.00 0.00 82 1017.4
20260506005040 58 322 0.0 5.0 0.00 0.00 0.00 82 1017.3
20260506004546 57 0 0.0 4.0 0.00 0.00 0.00 82 1017.4
20260506004037 57 318 0.0 5.0 0.00 0.00 0.00 82 1017.4
20260506003538 57 342 1.0 6.0 0.00 0.00 0.00 82 1017.3
20260506003046 57 285 1.0 6.0 0.00 0.00 0.00 82 1017.3
20260506002537 57 317 1.0 4.0 0.00 0.00 0.00 82 1017.3
20260506002037 58 352 1.0 3.0 0.00 0.00 0.00 81 1017.4
20260506001549 58 320 1.0 7.0 0.00 0.00 0.00 81 1017.5
20260506001038 58 0 0.0 7.0 0.00 0.00 0.00 81 1017.4
20260506000538 58 282 1.0 6.0 0.00 0.00 0.00 81 1017.5
20260506000054 58 288 1.0 5.0 0.00 0.00 0.00 80 1017.5
20260505235538 58 317 2.0 6.0 0.00 0.00 0.00 80 1017.5
20260505235037 58 292 1.0 7.0 0.00 0.00 0.00 80 1017.4
20260505234546 59 307 1.0 7.0 0.00 0.00 0.00 80 1017.4
20260505234040 59 268 1.0 7.0 0.00 0.00 0.00 80 1017.4
20260505233537 59 0 2.0 7.0 0.00 0.00 0.00 80 1017.5
20260505233042 59 320 1.0 6.0 0.00 0.00 0.00 80 1017.5
20260505232537 58 329 1.0 4.0 0.00 0.00 0.00 80 1017.6
20260505232039 58 0 1.0 7.0 0.00 0.00 0.00 79 1017.6
20260505231544 59 337 1.0 7.0 0.00 0.00 0.00 78 1017.6
20260505231037 59 321 2.0 7.0 0.00 0.00 0.00 79 1017.6
20260505230536 59 299 1.0 8.0 0.00 0.00 0.00 78 1017.6
20260505230039 59 351 1.0 8.0 0.00 0.00 0.00 79 1017.7
20260505225538 59 9 2.0 8.0 0.00 0.00 0.00 79 1017.6
20260505225038 59 0 1.0 4.0 0.00 0.00 0.00 80 1017.6
20260505224551 59 312 1.0 7.0 0.00 0.00 0.00 80 1017.5
20260505224039 59 342 1.0 7.0 0.00 0.00 0.00 80 1017.6
20260505223545 59 313 1.0 4.0 0.00 0.00 0.00 80 1017.6
20260505223045 59 323 1.0 8.0 0.00 0.00 0.00 80 1017.8
20260505222537 59 5 1.0 8.0 0.00 0.00 0.00 79 1017.8
20260505222037 60 324 1.0 8.0 0.00 0.00 0.00 79 1017.8
20260505221556 59 331 1.0 10.0 0.00 0.00 0.00 78 1017.8
20260505221037 60 313 2.0 10.0 0.00 0.00 0.00 78 1017.9
20260505220537 60 256 2.0 11.0 0.00 0.00 0.00 78 1017.9
20260505220055 60 340 1.0 11.0 0.00 0.00 0.00 78 1017.8
20260505215537 60 300 2.0 7.0 0.00 0.00 0.00 77 1017.8
20260505215037 60 337 2.0 7.0 0.00 0.00 0.00 76 1017.8
20260505214551 60 275 2.0 7.0 0.00 0.00 0.00 77 1017.7
20260505214038 60 312 1.0 9.0 0.00 0.00 0.00 76 1017.7
20260505213539 60 323 2.0 9.0 0.00 0.00 0.00 76 1017.7
20260505213049 60 5 2.0 9.0 0.00 0.00 0.00 75 1017.6
20260505212538 60 317 1.0 6.0 0.00 0.00 0.00 75 1017.6
20260505212038 61 315 1.0 6.0 0.00 0.00 0.00 76 1017.6
20260505211542 61 0 1.0 9.0 0.00 0.00 0.00 76 1017.5
20260505211037 61 352 1.0 9.0 0.00 0.00 0.00 76 1017.5
20260505210537 61 315 1.0 8.0 0.00 0.00 0.00 76 1017.5
20260505210051 61 311 1.0 7.0 0.00 0.00 0.00 77 1017.5
20260505205537 61 24 2.0 9.0 0.00 0.00 0.00 78 1017.5
20260505205039 61 322 2.0 12.0 0.00 0.00 0.00 78 1017.4
20260505204556 60 346 3.0 12.0 0.00 0.00 0.00 78 1017.3
20260505204039 60 318 4.0 12.0 0.00 0.00 0.00 77 1017.4
20260505203537 60 319 4.0 13.0 0.00 0.00 0.00 76 1017.3
20260505203042 61 304 5.0 13.0 0.00 0.00 0.00 75 1017.3
20260505202537 61 300 3.0 10.0 0.00 0.00 0.00 73 1017.4
20260505202036 61 291 3.0 10.0 0.00 0.00 0.00 73 1017.3
20260505201546 61 30 2.0 10.0 0.00 0.00 0.00 73 1017.3
20260505201037 61 327 3.0 10.0 0.00 0.00 0.00 73 1017.2
20260505200538 61 0 1.0 8.0 0.00 0.00 0.00 74 1017.2
20260505200048 61 315 3.0 8.0 0.00 0.00 0.00 75 1017.2
20260505195537 60 0 1.0 7.0 0.00 0.00 0.00 76 1017.2
20260505195037 60 306 1.0 8.0 0.00 0.00 0.00 77 1017.2
20260505194557 59 0 2.0 8.0 0.00 0.00 0.00 77 1017.2
20260505194036 59 316 1.0 7.0 0.00 0.00 0.00 78 1017.3
20260505193535 59 299 2.0 7.0 0.00 0.00 0.00 79 1017.3
20260505193046 59 0 2.0 11.0 0.00 0.00 0.00 79 1017.2
20260505192537 59 288 2.0 11.0 0.00 0.00 0.00 80 1017.4
20260505192035 59 300 1.0 7.0 0.00 0.00 0.00 81 1017.3
20260505191547 58 286 2.0 7.0 0.00 0.00 0.00 82 1017.4
20260505191037 58 338 1.0 4.0 0.00 0.00 0.00 83 1017.4
20260505190538 58 321 0.0 4.0 0.00 0.00 0.00 83 1017.4
20260505190038 58 338 0.0 4.0 0.00 0.00 0.00 84 1017.4
20260505185538 58 0 1.0 6.0 0.00 0.00 0.00 86 1017.5
20260505185041 58 0 1.0 6.0 0.00 0.00 0.00 86 1017.4
20260505184543 58 0 1.0 4.0 0.00 0.00 0.00 86 1017.4
20260505184041 57 345 0.0 4.0 0.00 0.00 0.00 86 1017.4
20260505183538 57 0 0.0 4.0 0.00 0.00 0.00 86 1017.5
20260505183051 57 0 1.0 4.0 0.00 0.00 0.00 86 1017.5
20260505182537 57 267 0.0 4.0 0.00 0.00 0.00 86 1017.5
20260505182037 57 0 0.0 4.0 0.00 0.00 0.00 86 1017.5
20260505181545 57 346 0.0 4.0 0.00 0.00 0.00 86 1017.5
20260505181037 57 277 1.0 4.0 0.00 0.00 0.00 86 1017.5
20260505180536 57 318 0.0 3.0 0.00 0.00 0.00 87 1017.4
20260505180042 56 326 0.0 4.0 0.00 0.00 0.00 87 1017.4
20260505175535 56 0 0.0 4.0 0.00 0.00 0.00 88 1017.4
20260505175038 56 0 1.0 3.0 0.00 0.00 0.00 88 1017.3
20260505174546 56 284 0.0 5.0 0.00 0.00 0.00 89 1017.4
20260505174038 56 0 0.0 6.0 0.00 0.00 0.00 89 1017.3
20260505173536 56 305 2.0 6.0 0.00 0.00 0.00 89 1017.3
20260505173039 56 294 1.0 4.0 0.00 0.00 0.00 89 1017.2
20260505172534 55 302 1.0 4.0 0.00 0.00 0.00 89 1017.2
20260505172037 55 285 0.0 3.0 0.00 0.00 0.00 90 1017.2
20260505171547 55 0 0.0 3.0 0.00 0.00 0.00 90 1017.2
20260505171039 55 288 0.0 3.0 0.00 0.00 0.00 90 1017.1
20260505170535 55 337 0.0 3.0 0.00 0.00 0.00 91 1017.1
20260505170046 55 271 0.0 3.0 0.00 0.00 0.00 91 1017.1
20260505165536 55 0 0.0 5.0 0.00 0.00 0.00 91 1017.1
20260505165037 55 304 0.0 5.0 0.00 0.00 0.00 91 1017.1
20260505164555 55 314 0.0 2.0 0.00 0.00 0.00 91 1017.1
20260505164037 55 0 0.0 2.0 0.00 0.00 0.00 92 1017.1
20260505163534 55 0 0.0 2.0 0.00 0.00 0.00 92 1017.1
20260505163050 55 0 0.0 2.0 0.00 0.00 0.00 92 1017.0
20260505162535 54 0 0.0 4.0 0.00 0.00 0.00 92 1017.0
20260505162035 54 0 0.0 4.0 0.00 0.00 0.00 93 1017.0
20260505161551 54 284 0.0 2.0 0.00 0.00 0.00 93 1017.1
20260505161036 54 292 0.0 4.0 0.00 0.00 0.00 93 1017.1
20260505160535 54 0 0.0 4.0 0.00 0.00 0.00 93 1017.0
20260505153050 53 0 0.0 3.0 0.00 0.00 0.00 93 1016.8
20260505152537 53 238 1.0 3.0 0.00 0.00 0.00 93 1017.0
20260505152035 54 209 0.0 2.0 0.00 0.00 0.00 93 1016.9
20260505151553 54 0 0.0 2.0 0.00 0.00 0.00 93 1016.8
20260505151039 53 0 0.0 2.0 0.00 0.00 0.00 93 1016.8
20260505150535 53 0 0.0 2.0 0.00 0.00 0.00 94 1016.8
20260505140540 52 0 0.0 0.0 0.00 0.00 0.00 93 1016.4
20260505125038 52 0 0.0 0.0 0.00 0.00 0.00 93 1015.9
20260505124555 52 0 0.0 0.0 0.00 0.00 0.00 93 1015.9
20260505124037 52 0 0.0 0.0 0.00 0.00 0.00 93 1016.0
20260505123535 52 0 0.0 0.0 0.00 0.00 0.00 93 1015.9
20260505123055 52 0 0.0 0.0 0.00 0.00 0.00 93 1015.9
20260505122536 52 0 0.0 0.0 0.00 0.00 0.00 93 1015.9
20260505122035 52 0 0.0 0.0 0.00 0.00 0.00 93 1015.8
20260505121542 52 0 0.0 0.0 0.00 0.00 0.00 93 1015.8
20260505121039 52 0 0.0 0.0 0.00 0.00 0.00 93 1015.9
20260505120537 52 0 0.0 0.0 0.00 0.00 0.00 93 1015.8
20260505120100 52 0 0.0 0.0 0.00 0.00 0.00 93 1015.8
20260505115538 52 0 0.0 0.0 0.00 0.01 0.00 93 1015.8
20260505115041 52 0 0.0 0.0 0.00 0.01 0.00 93 1015.8
20260505114548 52 0 0.0 0.0 0.00 0.01 0.00 93 1015.8
20260505114037 52 0 0.0 0.0 0.00 0.01 0.00 93 1015.8
20260505113536 52 0 0.0 0.0 0.00 0.01 0.00 93 1015.8
20260505113103 52 0 0.0 0.0 0.00 0.01 0.00 93 1015.9
20260505112536 52 0 0.0 0.0 0.00 0.01 0.00 93 1015.9
20260505112037 52 0 0.0 0.0 0.00 0.01 0.00 93 1015.9
20260505111543 52 0 0.0 0.0 0.00 0.01 0.00 93 1015.9
20260505111041 52 0 0.0 0.0 0.00 0.01 0.00 93 1015.9
20260505110536 52 0 0.0 0.0 0.00 0.01 0.00 93 1015.9
20260505102038 53 0 0.0 0.0 0.00 0.03 0.00 93 1015.8
20260505101547 53 0 0.0 0.0 0.00 0.03 0.00 93 1015.8
20260505101041 53 0 0.0 0.0 0.00 0.03 0.00 93 1015.8
20260505100541 53 0 0.0 0.0 0.00 0.03 0.00 93 1015.8
20260505100048 53 0 0.0 0.0 0.00 0.03 0.00 93 1015.8
20260505095537 53 0 0.0 0.0 0.00 0.04 0.00 93 1015.8
20260505095036 53 0 0.0 0.0 0.00 0.04 0.00 93 1015.9
20260505094541 53 0 0.0 0.0 0.00 0.04 0.00 93 1015.8
20260505094035 53 0 0.0 0.0 0.00 0.04 0.00 93 1015.9
20260505093537 53 0 0.0 0.0 0.00 0.04 0.00 93 1015.9
20260505093045 53 0 0.0 0.0 0.00 0.04 0.00 92 1015.9
20260505092535 53 0 0.0 0.0 0.00 0.04 0.00 92 1016.0
20260505092035 53 0 0.0 0.0 0.00 0.04 0.00 92 1016.0
20260505091549 53 0 0.0 0.0 0.00 0.04 0.00 93 1016.1
20260505091034 53 0 0.0 0.0 0.00 0.04 0.00 93 1016.1
20260505090534 53 0 0.0 0.0 0.00 0.04 0.00 93 1016.1
20260505090048 53 0 0.0 0.0 0.00 0.04 0.00 93 1016.2
20260505085535 53 0 0.0 0.0 0.00 0.04 0.00 93 1016.3
20260505085039 53 0 0.0 0.0 0.00 0.04 0.00 92 1016.3
20260505084552 53 0 0.0 0.0 0.00 0.04 0.00 92 1016.3
20260505084037 53 0 0.0 0.0 0.00 0.04 0.00 92 1016.3
20260505083535 53 0 0.0 0.0 0.00 0.04 0.00 92 1016.3
20260505083051 53 0 0.0 0.0 0.00 0.04 0.00 92 1016.3
20260505082535 53 0 0.0 0.0 0.00 0.04 0.00 92 1016.4
20260505082036 53 0 0.0 0.0 0.00 0.04 0.00 92 1016.5
20260505081552 53 0 0.0 0.0 0.00 0.04 0.00 92 1016.5
20260505081036 53 0 0.0 0.0 0.00 0.04 0.00 92 1016.5
20260505080539 53 0 0.0 0.0 0.00 0.04 0.00 92 1016.5
20260505080048 53 0 0.0 0.0 0.00 0.04 0.00 92 1016.5
20260505075538 53 0 0.0 0.0 0.00 0.04 0.00 92 1016.5
20260505075038 53 0 0.0 0.0 0.00 0.04 0.00 92 1016.5
20260505074548 53 0 0.0 0.0 0.00 0.04 0.00 92 1016.6
20260505074038 53 0 0.0 0.0 0.00 0.04 0.00 92 1016.5
20260505073538 53 0 0.0 0.0 0.00 0.04 0.00 92 1016.6
20260505073046 53 0 0.0 0.0 0.00 0.04 0.00 92 1016.6
20260505072539 53 0 0.0 2.0 0.00 0.04 0.00 92 1016.6
20260505072038 53 0 0.0 2.0 0.00 0.04 0.00 92 1016.6
20260505071548 53 0 0.0 0.0 0.00 0.04 0.00 92 1016.7
20260505071038 53 0 0.0 0.0 0.00 0.04 0.00 92 1016.7
20260505070535 53 0 0.0 0.0 0.00 0.04 0.00 92 1016.7
20260505070050 53 0 0.0 0.0 0.00 0.04 0.00 92 1016.7
20260505065538 53 0 0.0 0.0 0.00 0.04 0.04 92 1016.7
20260505065035 53 0 0.0 0.0 0.00 0.04 0.04 92 1016.7
20260505064553 53 0 0.0 0.0 0.00 0.04 0.04 92 1016.6
20260505064037 53 0 0.0 0.0 0.00 0.04 0.04 92 1016.6
20260505063541 53 0 0.0 0.0 0.00 0.04 0.04 92 1016.6
20260505063055 53 0 0.0 0.0 0.00 0.04 0.04 92 1016.6
20260505062535 53 0 0.0 0.0 0.00 0.04 0.04 91 1016.6
20260505062039 53 0 0.0 0.0 0.00 0.04 0.04 91 1016.7
20260505061545 53 0 0.0 0.0 0.00 0.04 0.04 91 1016.7
20260505061036 53 0 0.0 0.0 0.00 0.04 0.04 91 1016.8
20260505060536 53 0 0.0 0.0 0.00 0.04 0.04 91 1016.9
20260505060049 53 0 0.0 0.0 0.00 0.04 0.04 91 1016.9
20260505055536 53 0 0.0 0.0 0.00 0.04 0.04 91 1017.0
20260505055037 53 0 0.0 0.0 0.00 0.04 0.04 91 1017.0
20260505054547 54 0 0.0 0.0 0.00 0.04 0.04 91 1017.0
20260505054040 54 0 0.0 0.0 0.00 0.04 0.04 91 1016.9
20260505053537 54 0 0.0 0.0 0.00 0.04 0.04 91 1017.0
20260505053111 54 0 0.0 0.0 0.00 0.04 0.04 91 1017.0
20260505052535 54 0 0.0 1.0 0.00 0.04 0.04 91 1017.0
20260505052037 54 0 0.0 1.0 0.00 0.04 0.04 91 1016.9
20260505051549 54 0 0.0 1.0 0.00 0.04 0.04 91 1016.8
20260505051039 54 0 0.0 0.0 0.00 0.04 0.04 91 1017.0
20260505050538 54 0 0.0 2.0 0.00 0.04 0.04 91 1017.0
20260505041545 54 0 0.0 0.0 0.00 0.04 0.04 90 1016.5
20260505041039 54 0 0.0 0.0 0.00 0.04 0.04 90 1016.6
20260505040538 54 0 0.0 1.0 0.00 0.04 0.04 89 1016.5
20260505040053 54 0 0.0 1.0 0.00 0.04 0.04 89 1016.4
20260505035540 54 0 0.0 1.0 0.00 0.07 0.04 89 1016.4
20260505035036 54 0 0.0 1.0 0.00 0.07 0.04 89 1016.3
20260505034613 54 0 0.0 0.0 0.00 0.07 0.04 89 1016.3
20260505034036 54 0 0.0 0.0 0.00 0.07 0.04 89 1016.2
20260505033536 54 0 0.0 0.0 0.00 0.07 0.04 89 1016.1
20260505033051 54 0 0.0 1.0 0.00 0.07 0.04 88 1016.1
20260505032537 54 0 0.0 1.0 0.00 0.07 0.04 88 1016.0
20260505032038 54 0 0.0 0.0 0.00 0.07 0.04 88 1015.7
20260505031549 55 0 0.0 0.0 0.00 0.07 0.04 88 1015.7
20260505031038 55 0 0.0 1.0 0.00 0.07 0.04 88 1015.7
20260505030540 55 0 0.0 1.0 0.00 0.07 0.04 88 1015.7
20260505030046 55 194 0.0 0.0 0.00 0.07 0.04 88 1015.6
20260505025538 55 0 0.0 1.0 0.00 0.07 0.04 88 1015.7
20260505025037 55 0 0.0 2.0 0.00 0.07 0.04 87 1015.7
20260505024548 55 0 0.0 2.0 0.00 0.07 0.04 87 1015.7